Погода Тарко-Сале

Погода Тарко-Сале : погода сейчас, прогноз погоды и архив. Всё, что Вы хотите узнать о погоде Тарко-Сале!

Хотите узнать прогноз погоды Тарко-Сале? Тогда Вам сюда: Погода Тарко-Сале

Поиск расширенной информации на нашем сайте:

Полезная информация:

Другие новости

Новости СМИ2

Главная страница сайта

Новости сайта

03.07.2017

Напоминаем, что на нашем специализированном сайте Метеоцентр.Азия вы можете получить высокодетализированные автоматические прогнозы погоды по пунктам России, СНГ и мира в авиационном формате (включающие направление и скорость ветра, видимость, явления погоды, количество и форму облачности, нижнюю и верхнюю границу облачности).

Рекомендуем:

Погода Тарко-Сале - сегодня

Время (UTC), дата Ветер
(°,м/с) 
Видим.   Явления Облачность Т
(°С)
Тd
(°С)
f(%) Тe
(°С)
Pmin
(гПа)
dP
(гПа)
Po
(мм)
O2
(г/м3)
Тmin Tmax R s Состояние
почвы
12 15.07.19 180 (Ю) 10 км    3/3 1000 м 
[Cu med, cong]
+32.7 +17.9 41 +47  1011.9  -0.1  757  268           
15 15.07.19 160 (Ю) 10 км    ясно 
+30 +18.4 50 +45  1012.3  0.4  757  271    +33.1       
18 15.07.19 140 (ЮВ) 10 км    1/0 средняя 
[Ac cuf]
+23.3 +19.3 78 +40  1012.7  0.3  757  277           
21 15.07.19 130 (ЮВ) 10 км    ясно 
+20.6 +18.1 86 +35  1012.9  0.2  757  280           
00 16.07.19 140 (ЮВ) 10 км    ясно 
+22.5 +18.6 79 +38  1013.5  0.6  758  278           
03 16.07.19 110 (В) 10 км    ясно 
+28.2 +20 61 +46  1013.5  758  272  +20.4        сухая 
06 16.07.19 150 (ЮВ) 10 км    ясно 
+32.6 +15.1 35 +41  1012.7  -0.7  757  270           
09 16.07.19 130 (ЮВ) 10 км    ясно 
+33.6 +14.5 32 +41  1012  -0.7  757  269           
12 16.07.19 110 (В) 10 км    ясно 
+33.5 +14.5 32 +41  1011.5  -0.5  756  269           
15 16.07.19 080 (В) 10 км    ясно 
+30.1 +17.3 46 +43  1011.3  -0.3  756  271    +34       
18 16.07.19 070 (В) 10 км    ясно 
+22 +18.8 82 +38  1011.7  0.4  757  278           
21 16.07.19 тихо ()   10 км    3/0 верхняя 
[Ci fib]
+18.9 +17.9 94 +33  1011.5  -0.3  756  281           
00 17.07.19 050 (СВ) 10 км    ясно 
+21.8 +18 79 +36  1011.3  -0.1  756  278           
03 17.07.19 060 (СВ) 10 км    3/0 верхняя 
[Ci fib]
+27.7 +18.3 57 +42  1011.3  756  273  +18.4         
06 17.07.19 070 (В) 10 км    8/0 верхняя 
[Ci fib]
+31.3 +15.7 39 +41  1010.2  -1  755  270           
09 17.07.19 080 (В) 10 км    10/3 1000 м верхняя 
[Cu hum|Ci fib]
+31.4 +14.5 36 +39  1009.1  -1.1  755  270           
12 17.07.19 070 (В) 10 км    10/3 1000 м верхняя 
[Cu hum|Ci fib]
+31.7 +16.5 40 +43  1009  -0.1  755  269           
15 17.07.19 070 (В) 10 км    10/4 1000 м средняя, верхняя 
[Cu med, cong|Ac lent|Cs]
+28.7 +18.1 53 +43  1008.7  -0.3  754  271    +33       
18 17.07.19 040 (СВ) 10 км  {ливн. осадки}  10/1 1000 м кучево-дожд., средняя, верхняя 
[Cb calv|Ac cast|Cs]
+23.7 +19.7 78 +41  1008.8  754  275           
21 17.07.19 070 (В) 10 км    8/0 верхняя 
[Ci fib]
+20.1 +18.6 91 +35  1008.9  -0.1  754  279           
00 18.07.19 тихо ()   10 км    10/0 средняя, верхняя 
[Ac cast|Cs]
+22 +18.7 82 +38  1009  0.1  755  277           
03 18.07.19 080 (В) 10 км    3/0 верхняя 
[Cc]
+27.6 +19.9 63 +46  1009  0.1  755  271  +19.7    0.0     
06 18.07.19 090 (В) 10 км    8/0 средняя 
[Ac trans]
+31.7 +18.5 46 +47  1008.4  -0.6  754  268           
09 18.07.19 090 (В) 10 км    4/4 1000 м 
[Cu med, cong]
+33.4 +14.4 32 +41  1007.8  -0.6  754  268           
12 18.07.19 090 (В) 10 км    8/3 1000 м средняя, верхняя 
[Cu med, cong|Ac trans|Ci fib]
+32.3 +15.4 36 +42  1007.9  754  268           
Время (UTC), дата Ветер
(°,м/с) 
Видим.   Явления Облачность Т
(°С)
Тd
(°С)
f(%) Тe
(°С)
Pmin
(гПа)
dP
(гПа)
Po
(мм)
O2
(г/м3)
Тmin Tmax R s Состояние
почвы

Для получения пояснительной информации подведите курсор к названию столбца.

ПОГОДА Тарко-Сале - архив

Всё, что Вы хотите узнать о погоде Тарко-Сале - удобно и подробно!

Выберите нужную дату (начиная с 1 января 2018* года) и нажмите кнопку "Найти".
Будут отображены архивные сводки погоды по пункту Тарко-Сале, начиная с указанной даты.


Отображать данные в формате CSV (для использования в таблицах Excel)


Внимание! Наш архив погоды предназначен исключительно для личного некоммерческого использования в познавательных целях. Если Вам необходимы официальные справки о состоянии погоды (для производственных, юридических, коммерческих и т.п. целей), обращайтесь в органы Росгидромета.

*Примечание: данная дата относится к архиву по метеостанциям СССР (Россия, СНГ, Балтия).
Архив по метеостанциям Зарубежной Европы и Азии (кроме Китая) хранится 10 дней, по другим регионам земного шара (Китай, Африка, Америка, Австралия, Океания) - 1 день.

Тарко-Сале - район местоположения метеостанции


Название, широта, долгота, высота метеостанции:
Тарко-Сале 64.9°ш. 77.8°д. 27 м над ур. моря [Российская Федерация]

Дополнительная информация

В oтличие oт бoльшинства пoгoдных сайтoв мы публикуем пoдрoбную метеoинфoрмацию в детальнoм прoфессиoнальнoм фoрмате.

Характеристики температуры и влажнoсти вoздуха измеряются на высoте 2 м в тени вдали oт зданий и деревьев.
Скoрoсть ветра измеряется на высoте 10 м (на урoвне рoста челoвека скoрoсть ветра ниже в 1.5-2 раза). Если метеoстанция нахoдится в гoрoде или в лесу, тo скoрoсть ветра занижена на 2-4 м/с пo сравнению с oткрытым местoм. Скoрoсть ветра над акватoриями крупных рек и oзёр, а также на вершинах хoлмoв на 2-5 м/с выше, чем в oбычных услoвиях.
Атмoсфернoе давление в разных тoчках местнoсти мoжет значительнo oтличаться oт давления на метеoстанции, в зависимoсти oт услoвий рельефа (при пoдъёме на 10 м давление пoнижается примернo на 1 мм рт.ст.).